Simultaneous Nadir Overpasses (SNOs) Predictions

Prediction of SNOs between LANDSAT-8 and METOP-B Satellite Orbit:

Table of predicted SNOs for the next 14.0 days since TLE Epoch: 12/19/2020
Index Date (LANDSAT-8) Time (LANDSAT-8) Lat,Lon (LANDSAT-8) SZA (LANDSAT-8 ) Date (METOP-B) Time (METOP-B) Lat,Lon (METOP-B) SZA (METOP-B ) Distance(km) Time Diff (sec)
1 12/19/2020 17:18:53 -81.11, 140.01 73.50 12/19/2020 17:18:36 -81.12, 140.12 73.49 2.01 17
2 12/19/2020 18:08:18 81.14, -51.90 106.57 12/19/2020 18:09:16 81.14, -52.08 106.58 3.07 58
3 12/22/2020 12:53:07 -81.13,-153.28 73.49 12/22/2020 12:53:00 -81.13,-153.32 73.49 0.74 7
4 12/22/2020 13:42:32 81.16, 14.78 106.58 12/22/2020 13:43:39 81.15, 14.84 106.61 1.21 67
5 12/25/2020 07:37:56 81.10, 105.02 106.36 12/25/2020 07:36:46 81.10, 104.95 106.33 1.06 70
6 12/25/2020 08:27:22 -81.12, -86.99 73.60 12/25/2020 08:27:25 -81.12, -87.15 73.61 2.75 3
7 12/28/2020 03:12:09 81.11, 171.61 106.23 12/28/2020 03:11:09 81.10, 171.45 106.19 2.79 60
8 12/28/2020 04:01:35 -81.13, -20.37 73.72 12/28/2020 04:01:47 -81.14, -20.24 73.70 2.21 12
9 12/30/2020 22:46:23 81.12,-121.83 106.04 12/30/2020 22:45:32 81.12,-121.69 106.04 2.49 51



Historial Predications of SNOs between LANDSAT-8 and METOP-B
